QPF
0.00 0.00 0.00 0.00 0.00 0.00 0.01 0.03 0.02 0.01 0.01 0.01 0.01 0.01 0.01 0.01 0.02 0.02 0.03 0.04 0.05 0.07 0.07 0.08 0.07 0.06 0.04 0.04 0.05 0.05 0.05 0.05 0.05 0.04 0.03 0.04 0.05 0.08 0.06 0.04 0.03 0.02 0.02 0.03
0.00 0.00 0.00 0.01 0.00 0.00 0.01 0.01 0.01 0.01 0.01 0.01 0.01 0.01 0.01 0.02 0.02 0.02 0.03 0.04 0.03 0.04 0.05 0.06 0.07 0.06 0.05 0.04 0.04 0.06 0.05 0.06 0.05 0.05 0.03 0.04 0.04 0.06 0.05 0.03 0.02 0.02 0.02 0.02
0.00 0.00 0.00 0.00 0.01 0.01 0.01 0.01 0.01 0.01 0.01 0.02 0.01 0.01 0.01 0.01 0.02 0.02 0.03 0.03 0.01 0.02 0.03 0.04 0.05 0.05 0.04 0.04 0.05 0.05 0.06 0.07 0.06 0.05 0.03 0.03 0.03 0.04 0.03 0.02 0.02 0.01 0.01 0.01
0.00 0.01 0.00 0.00 0.00 0.01 0.01 0.01 0.01 0.00 0.00 0.01 0.02 0.02 0.01 0.01 0.02 0.01 0.01 0.02 0.02 0.01 0.01 0.01 0.01 0.02 0.03 0.04 0.06 0.05 0.06 0.07 0.07 0.05 0.03 0.02 0.02 0.01 0.01 0.01 0.01 0.01 0.01 0.01
0.00 0.00 0.00 0.00 0.00 0.00 0.01 0.01 0.01 0.01 0.00 0.00 0.01 0.02 0.02 0.01 0.01 0.01 0.02 0.02 0.02 0.01 0.01 0.01 0.02 0.02 0.03 0.04 0.05 0.06 0.06 0.07 0.07 0.05 0.04 0.02 0.01 0.01 0.02 0.01 0.01 0.01 0.01 0.01
0.00 0.00 0.00 0.00 0.00 0.00 0.01 0.01 0.01 0.01 0.01 0.01 0.01 0.01 0.01 0.01 0.01 0.01 0.02 0.02 0.02 0.01 0.02 0.02 0.03 0.05 0.05 0.05 0.04 0.04 0.07 0.07 0.07 0.05 0.04 0.03 0.02 0.02 0.02 0.03 0.02 0.02 0.02 0.02
0.00 0.00 0.00 0.00 0.00 0.00 0.01 0.01 0.01 0.01 0.01 0.01 0.01 0.01 0.01 0.01 0.01 0.01 0.01 0.02 0.02 0.02 0.03 0.04 0.04 0.05 0.07 0.05 0.04 0.03 0.04 0.05 0.05 0.04 0.03 0.03 0.04 0.03 0.02 0.02 0.02 0.02 0.01 0.01
0.00 0.00 0.00 0.01 0.01 0.01 0.01 0.01 0.01 0.01 0.01 0.01 0.01 0.01 0.01 0.01 0.01 0.01 0.01 0.01 0.01 0.02 0.03 0.03 0.04 0.05 0.05 0.04 0.04 0.03 0.03 0.04 0.04 0.03 0.03 0.03 0.04 0.04 0.03 0.03 0.02 0.01 0.01 0.02
0.00 0.01 0.01 0.01 0.01 0.01 0.01 0.01 0.01 0.01 0.01 0.01 0.00 0.01 0.01 0.01 0.00 0.00 0.01 0.01 0.01 0.02 0.03 0.04 0.04 0.04 0.04 0.05 0.05 0.04 0.03 0.03 0.03 0.03 0.03 0.03 0.04 0.05 0.04 0.02 0.02 0.01 0.02 0.02
0.00 0.00 0.00 0.01 0.01 0.01 0.01 0.01 0.01 0.01 0.01 0.01 0.00 0.01 0.01 0.01 0.01 0.01 0.01 0.02 0.02 0.02 0.03 0.03 0.03 0.04 0.05 0.05 0.05 0.04 0.03 0.04 0.03 0.03 0.03 0.03 0.04 0.04 0.05 0.03 0.03 0.02 0.02 0.02
0.00 0.01 0.01 0.01 0.00 0.01 0.01 0.01 0.01 0.01 0.01 0.01 0.01 0.01 0.01 0.01 0.01 0.01 0.01 0.01 0.03 0.03 0.03 0.03 0.03 0.04 0.04 0.04 0.03 0.03 0.03 0.03 0.04 0.03 0.03 0.02 0.03 0.04 0.06 0.04 0.03 0.02 0.02 0.01
0.00 0.01 0.01 0.01 0.01 0.01 0.02 0.02 0.02 0.01 0.01 0.01 0.01 0.02 0.01 0.01 0.01 0.01 0.00 0.01 0.02 0.02 0.01 0.02 0.02 0.03 0.02 0.02 0.03 0.03 0.03 0.02 0.03 0.03 0.03 0.03 0.04 0.05 0.06 0.04 0.03 0.02 0.02 0.01
0.01 0.02 0.02 0.02 0.02 0.02 0.02 0.02 0.02 0.02 0.01 0.01 0.01 0.02 0.01 0.01 0.01 0.01 0.01 0.01 0.01 0.01 0.01 0.01 0.02 0.02 0.01 0.01 0.02 0.03 0.03 0.03 0.03 0.02 0.03 0.03 0.04 0.05 0.05 0.05 0.04 0.03 0.02 0.01
0.01 0.01 0.01 0.02 0.01 0.01 0.01 0.01 0.01 0.01 0.01 0.01 0.01 0.00 0.00 0.00 0.01 0.01 0.01 0.02 0.01 0.02 0.02 0.02 0.01 0.01 0.01 0.01 0.02 0.02 0.02 0.02 0.02 0.02 0.03 0.04 0.05 0.07 0.07 0.07 0.06 0.06 0.05 0.04
0.01 0.01 0.01 0.02 0.01 0.01 0.01 0.01 0.01 0.01 0.01 0.00 0.00 0.00 0.00 0.00 0.01 0.01 0.02 0.02 0.02 0.02 0.03 0.02 0.01 0.01 0.01 0.01 0.02 0.02 0.02 0.02 0.01 0.01 0.01 0.02 0.02 0.03 0.05 0.07 0.08 0.07 0.07 0.07
0.02 0.01 0.01 0.02 0.02 0.01 0.00 0.00 0.00 0.00 0.00 0.00 0.00 0.00 0.00 0.01 0.02 0.02 0.02 0.02 0.02 0.03 0.03 0.03 0.02 0.02 0.02 0.01 0.02 0.02 0.03 0.02 0.01 0.01 0.01 0.02 0.02 0.02 0.03 0.05 0.06 0.07 0.06 0.06
0.02 0.02 0.02 0.02 0.03 0.03 0.01 0.01 0.01 0.00 0.00 0.00 0.00 0.00 0.01 0.01 0.01 0.02 0.02 0.02 0.02 0.02 0.02 0.03 0.02 0.01 0.01 0.01 0.01 0.02 0.02 0.02 0.02 0.02 0.02 0.02 0.02 0.02 0.02 0.02 0.04 0.05 0.06 0.05
0.02 0.02 0.02 0.02 0.02 0.03 0.02 0.01 0.01 0.01 0.01 0.01 0.01 0.01 0.01 0.02 0.01 0.01 0.01 0.02 0.02 0.02 0.02 0.01 0.01 0.01 0.01 0.02 0.02 0.03 0.02 0.02 0.02 0.02 0.02 0.02 0.02 0.02 0.01 0.01 0.02 0.02 0.04 0.05
0.01 0.01 0.01 0.01 0.01 0.01 0.01 0.01 0.01 0.01 0.01 0.01 0.01 0.01 0.01 0.02 0.01 0.01 0.01 0.02 0.02 0.01 0.01 0.01 0.01 0.02 0.03 0.03 0.03 0.03 0.02 0.03 0.04 0.02 0.03 0.03 0.03 0.03 0.01 0.01 0.01 0.01 0.01 0.01
0.01 0.01 0.01 0.02 0.01 0.01 0.01 0.01 0.01 0.01 0.01 0.01 0.01 0.01 0.02 0.02 0.02 0.02 0.01 0.01 0.01 0.01 0.01 0.01 0.02 0.02 0.03 0.04 0.04 0.03 0.02 0.02 0.03 0.03 0.03 0.04 0.04 0.02 0.01 0.01 0.01 0.01 0.01 0.01
0.01 0.01 0.01 0.02 0.02 0.02 0.01 0.02 0.02 0.02 0.02 0.01 0.01 0.01 0.02 0.03 0.02 0.02 0.02 0.02 0.01 0.01 0.01 0.01 0.02 0.03 0.03 0.03 0.03 0.03 0.03 0.02 0.02 0.03 0.03 0.03 0.03 0.02 0.02 0.01 0.01 0.00 0.00 0.00
0.02 0.02 0.01 0.01 0.02 0.02 0.02 0.02 0.05 0.04 0.03 0.02 0.02 0.01 0.02 0.02 0.02 0.02 0.02 0.02 0.01 0.01 0.02 0.03 0.05 0.04 0.04 0.04 0.04 0.04 0.04 0.03 0.03 0.03 0.02 0.03 0.02 0.02 0.02 0.01 0.01 0.00 0.00 0.00
0.03 0.03 0.02 0.01 0.02 0.02 0.03 0.03 0.03 0.03 0.03 0.02 0.02 0.03 0.03 0.02 0.02 0.02 0.02 0.02 0.02 0.03 0.03 0.03 0.07 0.08 0.06 0.05 0.05 0.05 0.05 0.04 0.03 0.02 0.02 0.02 0.02 0.02 0.01 0.01 0.01 0.00 0.00 0.00
0.02 0.03 0.03 0.02 0.01 0.01 0.02 0.03 0.03 0.03 0.03 0.03 0.03 0.04 0.03 0.03 0.02 0.01 0.01 0.01 0.02 0.02 0.03 0.03 0.04 0.05 0.04 0.05 0.06 0.06 0.05 0.04 0.03 0.03 0.02 0.02 0.02 0.01 0.01 0.01 0.01 0.01 0.00 0.00
0.02 0.02 0.02 0.02 0.02 0.02 0.02 0.03 0.03 0.03 0.03 0.03 0.03 0.03 0.02 0.03 0.03 0.02 0.02 0.02 0.02 0.03 0.03 0.03 0.03 0.03 0.03 0.03 0.04 0.04 0.05 0.04 0.04 0.03 0.03 0.02 0.01 0.01 0.01 0.01 0.00 0.00 0.00 0.00
0.02 0.03 0.03 0.02 0.02 0.02 0.02 0.02 0.02 0.03 0.04 0.05 0.05 0.04 0.03 0.03 0.02 0.02 0.03 0.03 0.03 0.04 0.04 0.04 0.04 0.04 0.03 0.03 0.03 0.04 0.04 0.03 0.03 0.03 0.03 0.02 0.02 0.01 0.01 0.01 0.01 0.01 0.00 0.00
MSLP
1009.26 1009.73 1010.11 1010.41 1010.66 1010.89 1011.12 1011.34 1011.51 1011.58 1011.47 1011.16 1010.62 1009.89 1009.01 1008.10 1007.27 1006.62 1006.24 1006.17 1006.40 1006.88 1007.53 1008.26 1008.95 1009.56 1010.03 1010.37 1010.61 1010.78 1010.94 1011.13 1011.36 1011.63 1011.93 1012.22 1012.46 1012.65 1012.75 1012.79 1012.78 1012.75 1012.73 1012.74
1008.99 1009.35 1009.64 1009.90 1010.17 1010.50 1010.90 1011.31 1011.68 1011.92 1011.95 1011.70 1011.14 1010.32 1009.31 1008.23 1007.23 1006.43 1005.94 1005.79 1005.99 1006.48 1007.16 1007.93 1008.67 1009.30 1009.80 1010.16 1010.40 1010.59 1010.76 1010.97 1011.23 1011.54 1011.86 1012.16 1012.42 1012.59 1012.68 1012.70 1012.67 1012.62 1012.60 1012.62
1008.49 1008.73 1008.92 1009.16 1009.49 1009.94 1010.52 1011.15 1011.74 1012.16 1012.31 1012.11 1011.53 1010.61 1009.44 1008.18 1006.99 1006.02 1005.39 1005.16 1005.31 1005.80 1006.51 1007.32 1008.12 1008.82 1009.37 1009.78 1010.07 1010.30 1010.52 1010.77 1011.07 1011.41 1011.76 1012.08 1012.34 1012.51 1012.60 1012.60 1012.56 1012.52 1012.50 1012.53
1007.81 1007.92 1008.05 1008.28 1008.68 1009.27 1010.04 1010.89 1011.68 1012.28 1012.54 1012.38 1011.76 1010.73 1009.41 1007.96 1006.58 1005.44 1004.67 1004.33 1004.44 1004.91 1005.65 1006.51 1007.38 1008.16 1008.80 1009.29 1009.66 1009.96 1010.24 1010.55 1010.89 1011.26 1011.64 1011.98 1012.25 1012.42 1012.51 1012.52 1012.49 1012.45 1012.45 1012.49
1007.06 1007.07 1007.14 1007.38 1007.86 1008.60 1009.54 1010.58 1011.56 1012.29 1012.64 1012.50 1011.84 1010.72 1009.26 1007.65 1006.11 1004.81 1003.91 1003.48 1003.53 1003.98 1004.73 1005.64 1006.58 1007.44 1008.17 1008.76 1009.23 1009.61 1009.97 1010.33 1010.72 1011.12 1011.52 1011.87 1012.15 1012.34 1012.43 1012.46 1012.44 1012.42 1012.43 1012.49
1006.36 1006.29 1006.34 1006.61 1007.17 1008.03 1009.11 1010.30 1011.40 1012.24 1012.64 1012.51 1011.81 1010.62 1009.06 1007.34 1005.68 1004.27 1003.27 1002.76 1002.75 1003.17 1003.92 1004.86 1005.84 1006.78 1007.59 1008.28 1008.83 1009.31 1009.73 1010.15 1010.58 1011.01 1011.41 1011.77 1012.06 1012.25 1012.36 1012.40 1012.41 1012.41 1012.44 1012.51
1005.80 1005.69 1005.74 1006.05 1006.69 1007.63 1008.81 1010.08 1011.24 1012.12 1012.54 1012.40 1011.69 1010.47 1008.88 1007.11 1005.40 1003.94 1002.89 1002.33 1002.27 1002.65 1003.37 1004.30 1005.30 1006.27 1007.14 1007.89 1008.53 1009.07 1009.56 1010.03 1010.49 1010.93 1011.33 1011.69 1011.96 1012.16 1012.28 1012.34 1012.36 1012.39 1012.43 1012.50
1005.42 1005.32 1005.40 1005.76 1006.45 1007.44 1008.64 1009.92 1011.07 1011.93 1012.33 1012.19 1011.48 1010.28 1008.72 1007.00 1005.33 1003.89 1002.84 1002.26 1002.16 1002.49 1003.15 1004.03 1005.00 1005.96 1006.85 1007.64 1008.33 1008.93 1009.46 1009.96 1010.43 1010.87 1011.27 1011.60 1011.87 1012.05 1012.17 1012.24 1012.28 1012.32 1012.37 1012.44
1005.19 1005.15 1005.30 1005.71 1006.42 1007.40 1008.56 1009.77 1010.85 1011.63 1011.98 1011.83 1011.16 1010.03 1008.59 1006.99 1005.45 1004.12 1003.13 1002.57 1002.44 1002.70 1003.28 1004.07 1004.96 1005.87 1006.73 1007.52 1008.22 1008.85 1009.41 1009.93 1010.41 1010.83 1011.21 1011.51 1011.74 1011.91 1012.01 1012.08 1012.13 1012.17 1012.23 1012.30
1005.05 1005.11 1005.34 1005.81 1006.52 1007.44 1008.50 1009.57 1010.50 1011.17 1011.44 1011.28 1010.67 1009.69 1008.43 1007.04 1005.71 1004.55 1003.69 1003.18 1003.04 1003.24 1003.71 1004.37 1005.14 1005.95 1006.74 1007.49 1008.18 1008.81 1009.39 1009.92 1010.39 1010.79 1011.13 1011.40 1011.59 1011.72 1011.80 1011.85 1011.89 1011.94 1012.00 1012.05
1004.90 1005.09 1005.42 1005.93 1006.61 1007.44 1008.35 1009.23 1009.97 1010.48 1010.67 1010.51 1010.00 1009.19 1008.18 1007.08 1006.02 1005.10 1004.41 1003.99 1003.85 1003.98 1004.33 1004.85 1005.47 1006.14 1006.84 1007.52 1008.18 1008.80 1009.38 1009.90 1010.36 1010.74 1011.04 1011.26 1011.41 1011.49 1011.54 1011.56 1011.59 1011.63 1011.68 1011.73
1004.67 1005.00 1005.43 1005.97 1006.61 1007.31 1008.04 1008.70 1009.24 1009.58 1009.69 1009.54 1009.14 1008.55 1007.83 1007.05 1006.31 1005.66 1005.17 1004.87 1004.76 1004.83 1005.06 1005.42 1005.88 1006.41 1006.99 1007.59 1008.21 1008.81 1009.38 1009.89 1010.33 1010.69 1010.95 1011.12 1011.21 1011.24 1011.24 1011.24 1011.24 1011.26 1011.30 1011.35
1004.33 1004.80 1005.31 1005.87 1006.45 1007.02 1007.54 1007.99 1008.32 1008.50 1008.53 1008.41 1008.15 1007.80 1007.38 1006.94 1006.53 1006.18 1005.91 1005.73 1005.66 1005.69 1005.81 1006.03 1006.34 1006.73 1007.19 1007.72 1008.28 1008.85 1009.40 1009.91 1010.33 1010.65 1010.87 1010.99 1011.02 1011.00 1010.95 1010.91 1010.88 1010.89 1010.92 1010.95
1003.91 1004.49 1005.07 1005.62 1006.13 1006.56 1006.91 1007.15 1007.30 1007.35 1007.32 1007.24 1007.13 1007.00 1006.88 1006.77 1006.69 1006.62 1006.57 1006.53 1006.51 1006.51 1006.56 1006.66 1006.83 1007.10 1007.46 1007.91 1008.42 1008.96 1009.49 1009.97 1010.37 1010.65 1010.82 1010.89 1010.86 1010.79 1010.69 1010.60 1010.55 1010.53 1010.54 1010.56
1003.49 1004.13 1004.74 1005.28 1005.72 1006.03 1006.22 1006.30 1006.29 1006.24 1006.18 1006.16 1006.18 1006.27 1006.42 1006.61 1006.82 1007.01 1007.16 1007.25 1007.29 1007.29 1007.28 1007.29 1007.37 1007.54 1007.82 1008.20 1008.66 1009.16 1009.66 1010.11 1010.47 1010.71 1010.83 1010.83 1010.75 1010.62 1010.48 1010.35 1010.25 1010.20 1010.18 1010.18
1003.16 1003.83 1004.44 1004.94 1005.31 1005.52 1005.58 1005.53 1005.42 1005.31 1005.25 1005.28 1005.44 1005.71 1006.09 1006.52 1006.97 1007.37 1007.69 1007.90 1008.00 1008.02 1007.98 1007.95 1007.96 1008.06 1008.27 1008.60 1009.01 1009.47 1009.92 1010.33 1010.63 1010.82 1010.88 1010.83 1010.69 1010.50 1010.31 1010.14 1010.00 1009.91 1009.84 1009.80
1003.00 1003.65 1004.22 1004.68 1004.98 1005.11 1005.10 1004.97 1004.80 1004.67 1004.62 1004.72 1004.97 1005.39 1005.94 1006.56 1007.18 1007.74 1008.19 1008.49 1008.65 1008.70 1008.66 1008.60 1008.58 1008.65 1008.81 1009.09 1009.45 1009.85 1010.25 1010.59 1010.83 1010.95 1010.95 1010.84 1010.65 1010.41 1010.17 1009.95 1009.77 1009.62 1009.51 1009.40
1003.06 1003.65 1004.17 1004.57 1004.81 1004.89 1004.83 1004.67 1004.49 1004.36 1004.35 1004.50 1004.84 1005.35 1006.01 1006.73 1007.46 1008.12 1008.65 1009.02 1009.23 1009.30 1009.29 1009.23 1009.20 1009.25 1009.38 1009.61 1009.92 1010.26 1010.59 1010.86 1011.02 1011.07 1011.00 1010.83 1010.59 1010.31 1010.02 1009.76 1009.53 1009.33 1009.14 1008.95
1003.33 1003.84 1004.29 1004.63 1004.83 1004.88 1004.80 1004.65 1004.48 1004.39 1004.42 1004.62 1005.00 1005.57 1006.27 1007.04 1007.80 1008.50 1009.06 1009.47 1009.71 1009.81 1009.82 1009.79 1009.77 1009.80 1009.92 1010.11 1010.36 1010.63 1010.87 1011.05 1011.14 1011.11 1010.98 1010.76 1010.47 1010.16 1009.84 1009.54 1009.26 1008.99 1008.73 1008.45
1003.74 1004.18 1004.56 1004.84 1005.00 1005.04 1004.98 1004.86 1004.74 1004.69 1004.76 1005.00 1005.41 1005.98 1006.67 1007.43 1008.18 1008.85 1009.41 1009.82 1010.07 1010.20 1010.23 1010.22 1010.22 1010.25 1010.35 1010.50 1010.69 1010.88 1011.05 1011.14 1011.15 1011.05 1010.86 1010.60 1010.28 1009.94 1009.59 1009.26 1008.94 1008.61 1008.28 1007.91
1004.25 1004.61 1004.92 1005.15 1005.30 1005.34 1005.31 1005.24 1005.18 1005.19 1005.30 1005.56 1005.97 1006.51 1007.16 1007.85 1008.54 1009.16 1009.67 1010.06 1010.31 1010.44 1010.50 1010.51 1010.53 1010.56 1010.64 1010.75 1010.88 1011.00 1011.08 1011.09 1011.02 1010.87 1010.63 1010.34 1010.00 1009.65 1009.29 1008.93 1008.57 1008.20 1007.79 1007.35
1004.77 1005.07 1005.33 1005.53 1005.66 1005.73 1005.74 1005.73 1005.74 1005.80 1005.96 1006.22 1006.61 1007.11 1007.68 1008.29 1008.88 1009.42 1009.86 1010.20 1010.43 1010.57 1010.64 1010.67 1010.70 1010.73 1010.79 1010.86 1010.93 1010.98 1010.98 1010.92 1010.79 1010.58 1010.32 1010.00 1009.66 1009.30 1008.94 1008.57 1008.18 1007.76 1007.31 1006.80
1005.29 1005.54 1005.76 1005.94 1006.08 1006.17 1006.23 1006.29 1006.36 1006.48 1006.66 1006.93 1007.29 1007.72 1008.20 1008.71 1009.19 1009.63 1010.00 1010.29 1010.49 1010.62 1010.70 1010.74 1010.77 1010.80 1010.83 1010.86 1010.88 1010.86 1010.79 1010.67 1010.48 1010.24 1009.95 1009.63 1009.28 1008.93 1008.56 1008.18 1007.78 1007.34 1006.84 1006.30
1005.80 1006.02 1006.21 1006.38 1006.53 1006.65 1006.76 1006.87 1007.00 1007.16 1007.37 1007.64 1007.96 1008.32 1008.72 1009.12 1009.50 1009.85 1010.14 1010.37 1010.54 1010.66 1010.73 1010.78 1010.81 1010.83 1010.84 1010.82 1010.79 1010.71 1010.58 1010.40 1010.17 1009.89 1009.58 1009.25 1008.91 1008.55 1008.19 1007.80 1007.39 1006.93 1006.41 1005.84
1006.32 1006.52 1006.70 1006.86 1007.01 1007.16 1007.31 1007.47 1007.65 1007.85 1008.07 1008.33 1008.61 1008.92 1009.23 1009.54 1009.83 1010.09 1010.32 1010.50 1010.64 1010.74 1010.82 1010.86 1010.89 1010.89 1010.87 1010.81 1010.72 1010.58 1010.39 1010.16 1009.89 1009.58 1009.25 1008.91 1008.56 1008.20 1007.83 1007.44 1007.01 1006.54 1006.01 1005.43
1006.88 1007.06 1007.22 1007.37 1007.53 1007.70 1007.88 1008.08 1008.28 1008.51 1008.74 1008.98 1009.23 1009.49 1009.73 1009.97 1010.19 1010.39 1010.56 1010.71 1010.83 1010.92 1010.99 1011.03 1011.05 1011.03 1010.97 1010.87 1010.73 1010.53 1010.28 1009.99 1009.67 1009.33 1008.97 1008.61 1008.24 1007.87 1007.49 1007.08 1006.64 1006.16 1005.63 1005.06
Thickness
5737 5726 5721 5729 5735 5738 5737 5733 5731 5740 5754 5747 5742 5743 5750 5756 5755 5753 5752 5750 5749 5748 5748 5746 5743 5740 5736 5733 5730 5727 5724 5721 5718 5715 5711 5707 5704 5702 5700 5698 5696 5694 5691 5689
5722 5721 5737 5742 5740 5738 5734 5729 5729 5739 5750 5745 5738 5740 5750 5753 5753 5755 5752 5750 5748 5745 5743 5742 5740 5737 5733 5730 5728 5724 5721 5718 5714 5712 5709 5705 5701 5698 5696 5694 5692 5690 5688 5685
5721 5734 5746 5740 5735 5731 5731 5728 5730 5731 5739 5742 5735 5732 5742 5749 5752 5753 5753 5751 5749 5746 5742 5740 5737 5734 5731 5728 5726 5723 5718 5715 5712 5709 5705 5701 5697 5694 5692 5690 5688 5686 5684 5681
5725 5739 5742 5737 5735 5734 5725 5741 5739 5734 5723 5715 5725 5709 5732 5741 5742 5746 5747 5747 5747 5745 5742 5739 5736 5733 5729 5727 5725 5721 5716 5712 5708 5705 5701 5697 5693 5689 5687 5685 5683 5682 5679 5677
5727 5738 5737 5733 5740 5740 5737 5745 5738 5731 5719 5711 5715 5707 5721 5735 5734 5740 5745 5747 5746 5744 5742 5738 5736 5733 5729 5725 5721 5717 5712 5708 5705 5701 5698 5694 5690 5687 5684 5682 5679 5677 5674 5672
5735 5746 5745 5744 5749 5748 5745 5735 5726 5714 5706 5697 5710 5704 5711 5726 5735 5742 5745 5746 5744 5742 5740 5737 5734 5730 5725 5721 5717 5713 5709 5705 5701 5698 5695 5692 5688 5684 5680 5677 5675 5672 5669 5667
5726 5736 5746 5750 5740 5740 5736 5714 5695 5692 5685 5691 5712 5706 5713 5737 5744 5744 5744 5744 5744 5742 5737 5734 5730 5726 5722 5718 5713 5709 5705 5701 5699 5696 5693 5690 5686 5682 5678 5675 5672 5668 5665 5662
5710 5714 5738 5746 5741 5731 5727 5718 5695 5686 5683 5692 5705 5704 5723 5743 5746 5747 5745 5743 5741 5739 5736 5733 5730 5725 5721 5716 5711 5706 5702 5698 5695 5693 5690 5687 5683 5679 5675 5672 5669 5666 5662 5660
5708 5714 5742 5749 5751 5742 5724 5715 5718 5699 5694 5687 5695 5710 5728 5741 5740 5740 5739 5738 5736 5736 5734 5731 5728 5723 5719 5714 5709 5705 5700 5696 5693 5690 5687 5684 5680 5676 5673 5670 5666 5663 5660 5657
5721 5714 5732 5742 5744 5739 5733 5721 5704 5694 5683 5681 5693 5702 5710 5725 5729 5732 5732 5731 5731 5730 5729 5728 5724 5721 5717 5713 5708 5703 5698 5694 5691 5688 5684 5682 5678 5675 5671 5667 5663 5660 5657 5654
5724 5712 5718 5728 5725 5723 5721 5714 5703 5692 5692 5683 5680 5698 5727 5727 5730 5729 5729 5728 5727 5725 5724 5723 5720 5717 5712 5708 5704 5699 5695 5691 5688 5685 5682 5678 5675 5672 5669 5665 5661 5658 5655 5651
5718 5706 5701 5715 5730 5735 5727 5716 5703 5694 5689 5686 5683 5698 5731 5730 5729 5727 5726 5725 5724 5722 5720 5718 5715 5711 5707 5704 5700 5696 5692 5688 5685 5682 5679 5675 5672 5669 5666 5662 5659 5656 5652 5649
5715 5701 5689 5696 5707 5718 5716 5713 5707 5698 5688 5680 5680 5700 5725 5725 5724 5723 5722 5720 5719 5717 5716 5713 5710 5706 5703 5700 5697 5693 5689 5686 5684 5680 5676 5673 5669 5666 5663 5660 5657 5654 5650 5647
5717 5697 5691 5688 5696 5706 5707 5709 5706 5698 5684 5682 5690 5701 5712 5714 5715 5717 5716 5715 5713 5712 5710 5707 5704 5702 5700 5697 5694 5691 5687 5685 5682 5678 5674 5671 5667 5664 5661 5658 5655 5651 5648 5645
5707 5693 5695 5700 5708 5708 5705 5705 5705 5700 5698 5693 5698 5700 5707 5710 5712 5712 5712 5710 5708 5706 5704 5702 5700 5698 5696 5693 5690 5688 5685 5682 5679 5676 5672 5669 5666 5663 5659 5656 5652 5649 5645 5643
5693 5689 5690 5691 5700 5701 5698 5701 5702 5701 5700 5698 5699 5700 5711 5710 5708 5706 5705 5704 5702 5701 5700 5698 5697 5695 5693 5691 5688 5685 5682 5679 5676 5673 5670 5668 5664 5661 5657 5653 5650 5646 5642 5639
5681 5680 5676 5675 5688 5691 5682 5695 5696 5696 5698 5695 5692 5699 5702 5701 5701 5700 5698 5698 5697 5697 5696 5694 5693 5691 5689 5687 5685 5682 5679 5676 5673 5670 5668 5665 5662 5658 5655 5651 5647 5643 5639 5636
5674 5670 5663 5664 5674 5666 5682 5699 5698 5693 5693 5694 5696 5696 5698 5698 5698 5697 5696 5694 5693 5693 5692 5691 5689 5688 5686 5684 5682 5679 5677 5674 5671 5668 5665 5662 5659 5655 5652 5648 5644 5640 5637 5633
5673 5667 5657 5653 5656 5664 5680 5689 5688 5684 5684 5690 5689 5690 5690 5691 5690 5689 5692 5691 5690 5690 5689 5688 5686 5684 5682 5680 5678 5676 5673 5671 5668 5665 5662 5659 5656 5652 5648 5645 5641 5638 5634 5631
5665 5662 5654 5649 5651 5651 5668 5684 5690 5684 5674 5684 5683 5682 5681 5682 5673 5677 5684 5685 5684 5684 5684 5682 5681 5679 5677 5675 5673 5670 5668 5666 5664 5662 5659 5656 5653 5649 5646 5642 5639 5635 5632 5628
5649 5647 5645 5643 5644 5651 5667 5677 5681 5664 5665 5677 5677 5676 5675 5672 5672 5675 5677 5676 5677 5676 5676 5675 5674 5673 5671 5670 5668 5665 5662 5661 5661 5659 5656 5653 5650 5647 5643 5639 5636 5633 5629 5626
5639 5636 5634 5633 5635 5642 5662 5664 5660 5659 5667 5669 5669 5669 5667 5666 5667 5668 5668 5667 5668 5668 5668 5667 5666 5665 5664 5663 5662 5660 5658 5658 5655 5653 5651 5648 5645 5643 5641 5636 5633 5630 5626 5623
5631 5632 5630 5631 5634 5645 5651 5654 5657 5658 5658 5660 5661 5661 5661 5659 5659 5660 5659 5659 5659 5660 5659 5659 5658 5657 5656 5656 5655 5653 5654 5653 5649 5647 5645 5642 5640 5638 5636 5633 5630 5626 5623 5621
5624 5627 5625 5626 5633 5640 5644 5648 5650 5652 5652 5654 5654 5654 5654 5652 5652 5651 5650 5650 5651 5651 5651 5651 5651 5650 5649 5649 5649 5648 5648 5647 5644 5641 5639 5637 5635 5633 5631 5629 5627 5624 5621 5619
5612 5617 5616 5618 5625 5631 5636 5639 5641 5644 5645 5645 5646 5646 5646 5645 5644 5643 5642 5642 5642 5642 5642 5642 5642 5642 5642 5642 5642 5642 5641 5640 5638 5636 5634 5632 5630 5629 5627 5625 5624 5623 5621 5619
5601 5604 5606 5610 5616 5616 5623 5630 5633 5634 5635 5636 5637 5637 5637 5637 5636 5636 5634 5634 5634 5634 5634 5634 5634 5634 5634 5635 5636 5636 5635 5634 5633 5631 5629 5628 5626 5624 5623 5621 5620 5620 5618 5616